Погода в Яжелбицах

Россия / Новгородская область     58°02′10″N   32°57′35″E
темп.,
°C
ветер,
м/с
пор.,
м/с
влажн.,
%
обл.,
%
осадки,
мм/ч
давл.,
гПа
погр.,
м
24 сентября, пт
пт2400:00+6ююв5108999 0.0 1004663
03:00+5ююв41189100 0.0 1002757
06:00+5юв51185100 0.0 1000878
09:00+6юв5127885 0.0 999834
12:00+8юв5107299 0.0 999987
15:00+7юв51077100 0.0 10001068
18:00+8юв4978100 0.0 10001103
21:00+7юв4884100 0.0 1002895
25 сентября, сб
сб2500:00+7юв3989100 0.1 1002633
03:00+7юв3989100 0.1 1002524
06:00+7ююв3892100 0.1 1002579
09:00+7ююв4993100 0.3 1002589
12:00+8ю3893100 0.1 1002537
15:00+8ююз3896100 0.9 1002637
18:00+8юз3898100 0.3 1003467
21:00+8зюз2699100 2.4 1004393
26 сентября, вс
вс2600:00+8з389892 1.1 1005427
03:00+7зсз399898 1.4 1007491
06:00+6з3998100 0.1 1009461
09:00+7зсз31096100 0.1 1010514
12:00+9сз498886 0.1 1012813
15:00+10ссз4986100 0.9 1014873
18:00+9ссз4991100 0.5 1017657
21:00+8ссз399499 0.6 1019564
27 сентября, пн
пн2700:00+7с3794100 0.0 1021501
03:00+8с269395 0.1 1022408
06:00+7ссв2697100 0.0 1024279
09:00+8ссв259499 0.0 1025232
12:00+12св247112 0.0 1026879
15:00+13ссв3562100 0.3 10261241
18:00+9св26836 0.3 1028173
21:00+6всв25916 0.3 1029113
28 сентября, вт
вт2800:00+8св2789100 0.0 1030255
03:00+7всв269499 0.0 1031229
06:00+7всв2595100 0.0 1032214
09:00+8в259078 0.0 1032328
12:00+11в236781 0.0 1033994
15:00+11в226893 0.1 1033831
18:00+10в227793 0.0 103463
21:00+6в22945 0.0 103529